星链-5401 (STARLINK-5401 )

导读 | 星芒AI

STARLINK-5401 是 SpaceX 星链(Starlink)卫星互联网项目中的一颗低轨通信卫星。它属于星链计划的第五批发射任务,旨在为全球用户提供高速互联网服务。该卫星运行在约 550 公里的近地轨道,采用先进的推进系统和激光通信技术,以提高网络效率和减少延迟。作为星链星座的一部分,STARLINK-5401 与其他数千颗卫星协同工作,支持偏远地区的宽带接入,推动全球互联网覆盖的普及。

基本信息
目录编号:
54870
目录名称:
STARLINK-5401
国际标识:
2022-177BC
轨道中心:
EARTH
卫星名称:
星链-5401
卫星全名:
星链-5401 (STARLINK-5401 )
卫星状态:
在轨 (已飞行1089 天)
发射日期:
2022-12-28 UTC
国别 :
美国 (US)
星等 :
--
轨道信息
数据来源 国际轨道数据 AOE轨道数据
星历时间 2025-12-21T03:25:34+0800
19小时前
查看轨道信息
2025-12-16T15:00:00+0800
5天前
查看轨道信息
半长轴 6937.232km 6937.222km
偏心率 0.0001254 0.0001438
轨道倾角 43.003° 43.002°
近地点辐角 263.786° 258.254°
升交点赤经 188.593° 213.143°
平近点角 96.284° 116.660°
近地点 558.225km 558.089km
远地点 559.965km 560.085km
周期 95.838分钟 95.838分钟
每日圈数 15.025312 15.025344
详细信息
固有亮度:
5
最大亮度:
2.5
卫星平台:
Starlink v1.5
覆盖范围:
全球
运营商:
太空探索技术公司
运营商所在国:
美国
制造商(研发单位):
太空探索技术公司
制造商所在国:
美国
使用方式:
暂无
卫星简介
星链(Starlink)计划是由太空探索技术公司(SpaceX)提出的一个巨型低轨卫星互联网星座项目,计划在2019年至2024年间在太空搭建由约1.2万颗卫星组成的“星链”网络,其中1584颗将部署在地球上空550千米处的近地轨道,并从2020年开始工作。该卫星仍在工作。
2D轨道图
3D轨道图
轨道高度分析图
轨道倾角分析图
轨道综合分析图
查看轨道综合分析图